EW6468 Weather Reports


Display with metric or nautical units.
time (UTC)temp
F
wind
direction
speed
MPH
gust
MPH
rain 1hr
in
rain 24hr
in
rain mn
in
humidity
%
barometer
mb
20260502163048 70 360 1.0 5.0 0.00 1.29 0.00 56 1019.2
20260502161538 68 84 1.0 5.0 0.00 1.29 0.00 58 1019.1
20260502151522 63 84 1.0 5.0 0.00 1.33 0.00 75 1018.9
20260502123054 53 176 0.0 2.0 0.00 2.67 0.00 85 1017.1
20260502121554 53 271 0.0 1.0 0.00 2.67 0.00 85 1017.0
20260502114551 52 336 0.0 1.0 0.00 2.99 0.00 85 1016.7
20260502113046 53 302 0.0 1.0 0.00 2.99 0.00 85 1016.5
20260502111549 53 294 0.0 2.0 0.00 2.99 0.00 85 1016.4
20260502110043 53 325 0.0 1.0 0.00 2.99 0.00 85 1016.2
20260502104542 53 325 0.0 3.0 0.00 3.23 0.00 85 1016.0
20260502103043 53 260 0.0 2.0 0.00 3.23 0.00 85 1016.0
20260502101545 53 317 0.0 1.0 0.00 3.23 0.00 85 1015.8
20260502091528 53 316 0.0 2.0 0.00 3.66 0.00 85 1014.8
20260502071519 55 36 0.0 2.0 0.00 4.43 0.00 85 1014.7
20260502070017 54 293 0.0 2.0 0.00 4.43 0.00 85 1014.5
20260502064516 54 316 0.0 2.0 0.00 4.51 0.00 85 1014.3
20260502063025 55 20 0.0 4.0 0.00 4.51 0.00 85 1014.3
20260502061516 54 348 0.0 4.0 0.00 4.51 0.00 85 1014.3
20260502060014 55 336 0.0 3.0 0.00 4.51 0.00 85 1014.3
20260502054514 55 24 0.0 4.0 0.00 4.84 0.00 85 1014.1
20260502053010 55 327 0.0 3.0 0.00 4.84 0.00 85 1014.3
20260502051509 55 327 0.0 5.0 0.00 4.84 0.00 85 1014.3
20260502050007 55 327 0.0 5.0 0.00 4.84 0.00 85 1014.2
20260502044505 56 5 1.0 6.0 0.00 4.84 4.84 85 1014.0
20260502043004 56 360 1.0 3.0 0.00 4.84 4.84 85 1013.9
20260502041503 56 5 1.0 11.0 0.00 4.84 4.84 85 1014.3
20260502040002 56 342 0.0 2.0 0.00 4.84 4.84 85 1014.2
20260502034600 56 78 1.0 5.0 0.00 4.84 4.84 85 1014.0
20260502033107 56 279 1.0 5.0 0.02 4.84 4.84 85 1013.7
20260502031555 56 336 1.0 3.0 0.05 4.84 4.84 85 1013.5
20260502030056 56 5 1.0 5.0 0.08 4.84 4.84 85 1012.9
20260502024554 56 329 1.0 4.0 0.11 4.86 4.84 85 1012.7
20260502023054 56 355 0.0 4.0 0.15 4.84 4.83 85 1012.7
20260502021549 57 66 0.0 2.0 0.14 4.80 4.80 85 1012.8
20260502020053 57 271 0.0 2.0 0.12 4.78 4.76 85 1012.5
20260502014544 57 86 0.0 3.0 0.10 4.75 4.74 85 1012.2
20260502013043 57 355 1.0 5.0 0.06 4.69 4.68 85 1011.6
20260502011541 58 262 1.0 4.0 0.09 4.67 4.66 85 1012.1
20260502010039 59 304 0.0 6.0 0.11 4.66 4.65 85 1010.7
20260502004637 59 29 0.0 2.0 0.11 4.65 4.63 86 1010.6
20260502003038 59 335 0.0 4.0 0.12 4.63 4.62 85 1011.2
20260502001536 59 355 0.0 2.0 0.13 4.57 4.55 85 1010.8
20260502000036 59 14 0.0 5.0 0.30 4.55 4.54 85 1010.5
20260501234536 59 326 1.0 5.0 0.28 4.53 4.51 85 1010.0
20260501233035 59 313 0.0 7.0 0.26 4.51 4.50 85 1009.7
20260501231550 59 179 0.0 3.0 0.18 4.43 4.42 85 1010.4
20260501230032 60 289 1.0 5.0 0.00 4.25 4.24 85 1010.3
20260501224531 60 283 0.0 8.0 0.01 4.25 4.24 85 1008.5
20260501223051 60 15 1.0 4.0 0.02 4.25 4.24 85 1008.6
20260501221529 60 26 1.0 6.0 0.03 4.25 4.24 85 1009.5
20260501220027 60 346 0.0 2.0 0.05 4.25 4.24 85 1010.2
20260501214526 60 5 1.0 4.0 0.07 4.24 4.23 85 1009.9
20260501213025 61 309 0.0 2.0 0.11 4.23 4.22 85 1009.8
20260501211525 61 321 1.0 3.0 0.13 4.22 4.21 85 1008.1
20260501210024 61 5 0.0 3.0 0.13 4.20 4.19 85 1008.2
20260501204526 61 271 0.0 5.0 0.12 4.17 4.16 85 1008.8
20260501203021 61 185 0.0 4.0 0.09 4.12 4.11 86 1008.7
20260501201521 62 20 2.0 6.0 0.07 4.08 4.07 85 1008.6
20260501200020 62 298 0.0 5.0 0.13 4.07 4.05 85 1008.0
20260501194520 62 355 0.0 2.0 0.14 4.05 4.04 85 1008.1
20260501193021 62 254 0.0 3.0 0.14 4.01 4.01 85 1008.2
20260501191518 62 263 0.0 2.0 0.14 4.01 4.00 85 1008.3
20260501190018 62 304 0.0 2.0 0.11 3.94 3.93 85 1007.8
20260501184517 62 166 0.0 4.0 0.10 3.91 3.90 85 1008.0
20260501183016 62 173 1.0 6.0 0.07 3.88 3.87 85 1006.5
20260501181515 62 11 1.0 4.0 0.06 3.86 3.85 85 1007.3
20260501180011 62 355 0.0 4.0 0.04 3.83 3.82 85 1008.1
20260501174512 62 360 0.0 6.0 0.06 3.81 3.80 86 1008.7
20260501173010 62 344 0.0 3.0 0.12 3.81 3.80 86 1008.7
20260501171508 62 341 0.0 3.0 0.18 3.80 3.79 85 1009.0